CW2621 Weather Reports


Display with metric or nautical units.
time (UTC)temp
F
wind
direction
speed
MPH
gust
MPH
rain 1hr
in
rain 24hr
in
rain mn
in
humidity
%
barometer
mb
20260506172551 61 195 1.0 2.0 0.02 0.02 0.02 84 1011.2
20260506172051 62 226 1.0 3.0 0.01 0.01 0.01 82 1011.2
20260506171551 62 233 1.0 3.0 0.01 0.01 0.01 81 1011.4
20260506171051 63 191 2.0 4.0 0.00 0.00 0.00 80 1011.5
20260506170551 63 0 0.0 4.0 0.00 0.00 0.00 78 1011.6
20260506170051 64 0 0.0 5.0 0.00 0.00 0.00 76 1011.7
20260506165551 65 233 2.0 6.0 0.00 0.00 0.00 75 1011.5
20260506165051 66 196 3.0 6.0 0.00 0.00 0.00 73 1011.4
20260506164551 66 177 3.0 8.0 0.00 0.00 0.00 70 1011.2
20260506164051 66 137 1.0 8.0 0.00 0.00 0.00 70 1011.3
20260506163550 67 174 1.0 7.0 0.00 0.00 0.00 71 1011.2
20260506163051 67 262 3.0 10.0 0.00 0.00 0.00 70 1011.2
20260506162551 67 225 2.0 10.0 0.00 0.00 0.00 70 1011.2
20260506162051 66 153 2.0 8.0 0.00 0.00 0.00 69 1011.1
20260506161551 67 179 2.0 7.0 0.00 0.00 0.00 70 1011.4
20260506161051 66 164 1.0 9.0 0.00 0.00 0.00 70 1011.5
20260506160551 66 208 0.0 10.0 0.00 0.00 0.00 69 1011.5
20260506160051 66 162 1.0 10.0 0.00 0.00 0.00 70 1011.7
20260506155551 66 0 0.0 9.0 0.00 0.00 0.00 69 1011.7
20260506155112 67 143 5.0 9.0 0.00 0.00 0.00 68 1011.7
20260506154551 67 57 4.0 9.0 0.00 0.00 0.00 68 1011.6
20260506154051 67 181 2.0 6.0 0.00 0.00 0.00 68 1011.6
20260506153551 67 143 1.0 7.0 0.00 0.00 0.00 68 1011.5
20260506153051 67 200 0.0 7.0 0.00 0.00 0.00 68 1011.5
20260506152551 67 324 5.0 7.0 0.00 0.00 0.00 68 1011.6
20260506152111 67 249 2.0 7.0 0.00 0.00 0.00 67 1011.5
20260506151551 67 104 1.0 7.0 0.00 0.00 0.00 67 1011.5
20260506151051 67 0 0.0 7.0 0.00 0.00 0.00 68 1011.5
20260506150612 67 205 3.0 8.0 0.00 0.00 0.00 67 1011.6
20260506150051 67 238 2.0 8.0 0.00 0.00 0.00 68 1011.6
20260506145551 67 176 0.0 9.0 0.00 0.00 0.00 70 1011.6
20260506145050 67 174 0.0 10.0 0.00 0.00 0.00 68 1011.8
20260506144551 67 129 3.0 11.0 0.00 0.00 0.00 69 1011.8
20260506144051 67 160 2.0 11.0 0.00 0.00 0.00 68 1011.9
20260506143551 67 108 0.0 13.0 0.00 0.00 0.00 70 1011.9
20260506143051 67 192 2.0 13.0 0.00 0.00 0.00 69 1011.8
20260506142612 66 161 2.0 13.0 0.00 0.00 0.00 69 1011.9
20260506142112 66 274 1.0 8.0 0.00 0.00 0.00 70 1011.9
20260506141612 66 134 4.0 8.0 0.00 0.00 0.00 70 1011.9
20260506141051 66 230 1.0 9.0 0.00 0.00 0.00 71 1012.0
20260506140551 65 122 1.0 10.0 0.00 0.00 0.00 71 1012.1
20260506140112 65 50 1.0 10.0 0.00 0.00 0.00 72 1012.0
20260506135551 65 202 1.0 10.0 0.00 0.00 0.00 73 1011.9
20260506135051 65 66 6.0 10.0 0.00 0.00 0.00 72 1011.8
20260506134612 65 185 2.0 10.0 0.00 0.00 0.00 73 1011.6
20260506134050 65 224 3.0 10.0 0.00 0.00 0.00 73 1011.6
20260506133551 65 249 4.0 6.0 0.00 0.00 0.00 73 1011.8
20260506133051 65 181 2.0 6.0 0.00 0.00 0.00 74 1011.9
20260506132551 64 148 2.0 5.0 0.00 0.00 0.00 75 1012.0
20260506132051 64 198 2.0 6.0 0.00 0.00 0.00 75 1012.0
20260506131551 64 169 1.0 10.0 0.00 0.00 0.00 76 1011.9
20260506131050 64 133 1.0 10.0 0.00 0.00 0.00 76 1012.0
20260506130551 63 124 2.0 8.0 0.00 0.00 0.00 76 1012.0
20260506130051 63 102 4.0 8.0 0.00 0.00 0.00 77 1012.3
20260506125612 63 309 1.0 4.0 0.00 0.00 0.00 78 1012.3
20260506125051 63 66 3.0 6.0 0.00 0.00 0.00 78 1012.6
20260506124612 63 128 4.0 6.0 0.00 0.00 0.00 78 1012.6
20260506124051 62 161 2.0 3.0 0.00 0.00 0.00 79 1012.7
20260506123551 62 150 0.0 5.0 0.00 0.00 0.00 78 1012.6
20260506123051 62 0 0.0 5.0 0.00 0.00 0.00 79 1012.6
20260506122551 62 138 2.0 5.0 0.00 0.00 0.00 79 1012.6
20260506122112 62 250 1.0 4.0 0.00 0.00 0.00 79 1012.6
20260506121551 62 203 3.0 5.0 0.00 0.00 0.00 79 1012.3
20260506121051 62 153 1.0 8.0 0.00 0.00 0.00 79 1012.4
20260506120551 62 197 2.0 8.0 0.00 0.00 0.00 79 1012.4
20260506120112 62 202 1.0 6.0 0.00 0.00 0.00 80 1012.4
20260506115551 62 99 1.0 7.0 0.00 0.00 0.00 80 1012.4
20260506115051 62 100 2.0 7.0 0.00 0.00 0.00 80 1012.3
20260506114551 61 0 0.0 8.0 0.00 0.00 0.00 80 1012.4
20260506114051 61 120 4.0 8.0 0.00 0.00 0.00 80 1012.2
20260506113551 61 223 1.0 8.0 0.00 0.00 0.00 81 1012.1
20260506113112 61 228 3.0 6.0 0.00 0.00 0.00 81 1012.0
20260506112551 61 162 2.0 6.0 0.00 0.00 0.00 81 1012.3
20260506112051 60 248 2.0 6.0 0.00 0.00 0.00 81 1012.5
20260506111551 60 281 0.0 7.0 0.00 0.00 0.00 81 1012.5
20260506111051 60 295 0.0 8.0 0.00 0.00 0.00 82 1012.6
20260506110551 60 195 1.0 8.0 0.00 0.00 0.00 82 1012.6
20260506110051 59 182 1.0 7.0 0.00 0.00 0.00 83 1012.6
20260506105551 60 205 0.0 7.0 0.00 0.00 0.00 82 1012.5
20260506105051 60 96 1.0 9.0 0.00 0.00 0.00 82 1012.5
20260506104551 60 0 0.0 9.0 0.00 0.00 0.00 82 1012.7
20260506104051 60 155 2.0 5.0 0.00 0.00 0.00 82 1012.4
20260506103551 60 285 1.0 5.0 0.00 0.00 0.00 82 1012.3
20260506103051 59 190 1.0 5.0 0.00 0.00 0.00 82 1012.3
20260506102551 59 182 0.0 7.0 0.00 0.00 0.00 82 1012.4
20260506102112 59 216 2.0 9.0 0.00 0.00 0.00 83 1012.2
20260506101551 59 210 1.0 9.0 0.00 0.00 0.00 83 1012.2
20260506101051 59 11 3.0 5.0 0.00 0.00 0.00 83 1012.2
20260506100551 59 142 1.0 9.0 0.00 0.00 0.00 83 1012.2
20260506100051 59 184 0.0 9.0 0.00 0.00 0.00 83 1012.1
20260506095551 59 49 3.0 4.0 0.00 0.00 0.00 83 1012.2
20260506095112 59 213 1.0 5.0 0.00 0.00 0.00 83 1012.2
20260506094551 59 0 0.0 5.0 0.00 0.00 0.00 83 1012.1
20260506094051 59 84 2.0 4.0 0.00 0.00 0.00 83 1012.1
20260506093612 59 131 0.0 4.0 0.00 0.00 0.00 83 1012.2
20260506093051 59 0 0.0 6.0 0.00 0.00 0.00 83 1012.3
20260506092551 59 183 2.0 6.0 0.00 0.00 0.00 82 1012.3
20260506092051 59 106 1.0 7.0 0.00 0.00 0.00 82 1012.2
20260506091551 59 238 2.0 7.0 0.00 0.00 0.00 82 1012.2
20260506091051 59 208 2.0 6.0 0.00 0.00 0.00 82 1012.2
20260506090551 59 201 1.0 5.0 0.00 0.00 0.00 82 1012.3
20260506090051 59 201 1.0 7.0 0.00 0.00 0.00 82 1012.1
20260506085551 59 195 1.0 7.0 0.00 0.00 0.00 82 1012.2
20260506085051 59 184 2.0 7.0 0.00 0.00 0.00 82 1012.3
20260506084551 59 140 3.0 6.0 0.00 0.00 0.00 81 1012.3
20260506084051 59 0 0.0 8.0 0.00 0.00 0.00 81 1012.4
20260506083551 59 52 6.0 8.0 0.00 0.00 0.00 81 1012.3
20260506083051 59 199 1.0 7.0 0.00 0.00 0.00 81 1012.3
20260506082551 59 264 2.0 5.0 0.00 0.00 0.00 81 1012.3
20260506082112 60 224 3.0 5.0 0.00 0.00 0.00 80 1012.2
20260506081551 60 220 2.0 4.0 0.00 0.00 0.00 80 1012.1
20260506081051 60 194 1.0 4.0 0.00 0.00 0.00 80 1012.3
20260506080551 60 179 3.0 4.0 0.00 0.00 0.00 80 1012.3
20260506080112 60 169 2.0 6.0 0.00 0.00 0.00 79 1012.3
20260506073051 60 148 2.0 5.0 0.00 0.00 0.00 79 1012.3
20260506072551 60 245 1.0 6.0 0.00 0.00 0.00 78 1012.4
20260506072051 60 325 1.0 7.0 0.00 0.00 0.00 78 1012.4
20260506071551 60 232 1.0 8.0 0.00 0.00 0.00 78 1012.3
20260506071051 60 218 1.0 8.0 0.00 0.00 0.00 78 1012.3
20260506070551 60 255 1.0 8.0 0.00 0.00 0.00 78 1012.4
20260506062051 60 172 2.0 6.0 0.00 0.00 0.00 78 1012.3
20260506061552 60 186 2.0 7.0 0.00 0.00 0.00 77 1012.4
20260506061051 60 230 1.0 7.0 0.00 0.00 0.00 77 1012.3
20260506060551 60 177 1.0 7.0 0.00 0.00 0.00 77 1012.4
20260506051051 61 170 1.0 5.0 0.00 0.00 0.00 75 1012.7
20260506050551 62 247 1.0 5.0 0.00 0.00 0.00 75 1012.9
20260506045051 62 160 2.0 6.0 0.00 0.00 0.00 74 1012.9
20260506044552 62 226 0.0 6.0 0.00 0.00 0.00 73 1013.0
20260506044051 62 148 1.0 5.0 0.00 0.00 0.00 73 1012.9
20260506043551 63 334 3.0 8.0 0.00 0.00 0.00 72 1013.0
20260506043113 63 145 3.0 8.0 0.00 0.00 0.00 72 1013.1
20260506042612 63 106 3.0 6.0 0.00 0.00 0.00 72 1013.0
20260506042113 63 218 2.0 6.0 0.00 0.00 0.00 72 1013.0
20260506041612 63 0 0.0 7.0 0.00 0.00 0.00 71 1013.0
20260506041052 63 128 1.0 7.0 0.00 0.00 0.00 71 1013.1
20260506040551 63 109 6.0 7.0 0.00 0.00 0.00 71 1013.0
20260506040051 63 242 3.0 11.0 0.00 0.00 0.00 70 1013.1
20260506035610 63 115 2.0 11.0 0.00 0.00 0.00 70 1013.1
20260506035050 63 162 1.0 11.0 0.00 0.00 0.00 69 1013.1
20260506034550 63 205 2.0 5.0 0.00 0.00 0.00 68 1013.1
20260506034049 63 80 2.0 5.0 0.00 0.00 0.00 68 1013.1
20260506033550 63 330 4.0 8.0 0.00 0.00 0.00 68 1013.1
20260506033050 63 208 1.0 8.0 0.00 0.00 0.00 68 1013.2
20260506032550 63 119 2.0 8.0 0.00 0.00 0.00 67 1013.2
20260506032050 63 198 4.0 8.0 0.00 0.00 0.00 67 1013.2
20260506031549 63 35 1.0 7.0 0.00 0.00 0.00 67 1013.0
20260506031049 63 252 4.0 7.0 0.00 0.00 0.00 67 1013.1
20260506030612 63 195 3.0 5.0 0.00 0.00 0.00 67 1013.0
20260506030049 63 0 0.0 6.0 0.00 0.00 0.00 67 1013.1
20260506025549 63 160 2.0 6.0 0.00 0.00 0.00 67 1013.0
20260506025049 63 245 3.0 8.0 0.00 0.00 0.00 66 1012.9
20260506024550 63 89 4.0 8.0 0.00 0.00 0.00 66 1012.9
20260506024049 63 0 0.0 8.0 0.00 0.00 0.00 66 1012.9
20260506023550 63 183 3.0 9.0 0.00 0.00 0.00 66 1012.7
20260506023050 63 200 2.0 9.0 0.00 0.00 0.00 66 1012.7
20260506022549 63 250 4.0 10.0 0.00 0.00 0.00 66 1012.8
20260506022049 63 326 1.0 10.0 0.00 0.00 0.00 66 1012.8
20260506021610 63 183 2.0 6.0 0.00 0.00 0.00 66 1012.9
20260506021049 63 160 2.0 6.0 0.00 0.00 0.00 66 1012.9
20260506020549 63 212 0.0 6.0 0.00 0.00 0.00 67 1012.9
20260506020049 63 233 1.0 6.0 0.00 0.00 0.00 66 1013.0
20260506015549 63 0 0.0 11.0 0.00 0.00 0.00 66 1013.0
20260506015050 63 141 1.0 11.0 0.00 0.00 0.00 66 1013.0
20260506014610 63 221 1.0 7.0 0.00 0.00 0.00 65 1012.9
20260506014049 63 98 3.0 7.0 0.00 0.00 0.00 65 1012.9
20260506013550 63 0 0.0 8.0 0.00 0.00 0.00 65 1012.7
20260506013049 63 333 1.0 8.0 0.00 0.00 0.00 64 1012.7
20260506012550 63 158 2.0 5.0 0.00 0.00 0.00 64 1012.5
20260506012049 63 351 2.0 5.0 0.00 0.00 0.00 64 1012.6
20260506011550 63 172 1.0 4.0 0.00 0.00 0.00 64 1012.4
20260506011049 64 25 4.0 9.0 0.00 0.00 0.00 63 1012.4
20260506010610 64 158 0.0 9.0 0.00 0.00 0.00 63 1012.4
20260506010111 64 260 6.0 6.0 0.00 0.00 0.00 63 1012.3
20260506005549 64 153 2.0 5.0 0.00 0.00 0.00 62 1012.3
20260506005111 64 184 1.0 4.0 0.00 0.00 0.00 62 1012.3
20260506004550 64 0 0.0 6.0 0.00 0.00 0.00 62 1012.3
20260506004110 64 173 0.0 6.0 0.00 0.00 0.00 61 1012.1
20260506003550 64 31 3.0 5.0 0.00 0.00 0.00 61 1012.0
20260506003050 65 167 1.0 5.0 0.00 0.00 0.00 61 1012.0
20260506002550 65 202 1.0 9.0 0.00 0.00 0.00 60 1012.0
20260506002050 65 143 2.0 9.0 0.00 0.00 0.00 61 1011.8
20260506001549 65 251 2.0 6.0 0.00 0.00 0.00 60 1011.7
20260506001049 65 129 1.0 7.0 0.00 0.00 0.00 60 1011.7
20260506000610 66 115 2.0 7.0 0.00 0.00 0.00 60 1011.7
20260506000050 66 184 3.0 10.0 0.00 0.00 0.00 60 1011.6
20260505235550 66 183 2.0 10.0 0.00 0.00 0.00 60 1011.4
20260505235049 66 208 2.0 10.0 0.00 0.00 0.00 59 1011.4
20260505234549 66 210 5.0 6.0 0.00 0.00 0.00 59 1011.3
20260505234049 67 84 2.0 6.0 0.00 0.00 0.00 59 1011.1
20260505233549 67 269 2.0 7.0 0.00 0.00 0.00 59 1011.0
20260505233050 67 223 2.0 7.0 0.00 0.00 0.00 58 1010.9
20260505232549 67 243 3.0 10.0 0.00 0.00 0.00 58 1010.7
20260505232050 68 169 1.0 10.0 0.00 0.00 0.00 57 1010.9
20260505231550 68 213 7.0 9.0 0.00 0.00 0.00 56 1010.7
20260505231050 68 163 3.0 9.0 0.00 0.00 0.00 56 1010.8
20260505230611 69 55 2.0 9.0 0.00 0.00 0.00 56 1010.9
20260505230050 69 27 2.0 9.0 0.00 0.00 0.00 55 1010.8
20260505225549 69 124 5.0 8.0 0.00 0.00 0.00 55 1010.5
20260505225050 70 192 0.0 10.0 0.00 0.00 0.00 55 1010.6
20260505224550 70 27 3.0 10.0 0.00 0.00 0.00 54 1010.6
20260505224050 70 144 3.0 10.0 0.00 0.00 0.00 54 1010.5
20260505223550 70 195 0.0 5.0 0.00 0.00 0.00 54 1010.3
20260505223049 71 134 3.0 9.0 0.00 0.00 0.00 53 1010.3
20260505222550 71 210 2.0 9.0 0.00 0.00 0.00 53 1010.1
20260505222050 72 118 1.0 7.0 0.00 0.00 0.00 52 1010.0
20260505221550 72 188 6.0 8.0 0.00 0.00 0.00 52 1010.3
20260505221050 72 210 1.0 10.0 0.00 0.00 0.00 51 1010.3
20260505220549 72 354 2.0 10.0 0.00 0.00 0.00 51 1010.3
20260505220050 72 143 0.0 10.0 0.00 0.00 0.00 50 1010.5
20260505215550 73 227 1.0 7.0 0.00 0.00 0.00 51 1010.5
20260505215050 73 229 1.0 11.0 0.00 0.00 0.00 53 1010.5
20260505214550 73 0 0.0 11.0 0.00 0.00 0.00 51 1010.4
20260505214050 73 168 1.0 10.0 0.00 0.00 0.00 51 1010.4
20260505213550 73 70 6.0 10.0 0.00 0.00 0.00 50 1010.4
20260505213049 74 252 6.0 8.0 0.00 0.00 0.00 49 1010.3
20260505212550 74 216 2.0 8.0 0.00 0.00 0.00 49 1010.3
20260505212049 74 174 2.0 6.0 0.00 0.00 0.00 49 1010.4
20260505211611 74 110 2.0 11.0 0.00 0.00 0.00 48 1010.4
20260505211050 74 186 1.0 11.0 0.00 0.00 0.00 48 1010.4
20260505210611 75 37 4.0 10.0 0.00 0.00 0.00 47 1010.4
20260505210050 76 306 4.0 6.0 0.00 0.00 0.00 48 1010.3
20260505205549 76 127 2.0 6.0 0.00 0.00 0.00 48 1010.3
20260505205050 76 206 4.0 6.0 0.00 0.00 0.00 47 1010.2
20260505204549 76 124 3.0 8.0 0.00 0.00 0.00 50 1010.2
20260505204050 77 279 2.0 12.0 0.00 0.00 0.00 46 1010.2
20260505203550 77 0 0.0 12.0 0.00 0.00 0.00 46 1010.2
20260505203050 77 221 2.0 8.0 0.00 0.00 0.00 46 1010.2
20260505202611 77 261 2.0 8.0 0.00 0.00 0.00 45 1010.0
20260505202050 77 146 2.0 8.0 0.00 0.00 0.00 45 1010.0
20260505201550 77 120 2.0 8.0 0.00 0.00 0.00 45 1010.2
20260505201050 78 221 1.0 10.0 0.00 0.00 0.00 44 1010.2
20260505200550 78 123 3.0 10.0 0.00 0.00 0.00 44 1010.2
20260505200049 78 120 6.0 8.0 0.00 0.00 0.00 45 1010.4
20260505195550 78 11 1.0 8.0 0.00 0.00 0.00 45 1010.1
20260505195050 78 150 1.0 8.0 0.00 0.00 0.00 44 1010.1
20260505194550 79 223 2.0 7.0 0.00 0.00 0.00 43 1010.4
20260505194050 79 250 3.0 6.0 0.00 0.00 0.00 45 1010.3
20260505193550 79 146 1.0 7.0 0.00 0.00 0.00 43 1010.3
20260505193049 79 205 1.0 8.0 0.00 0.00 0.00 42 1010.4
20260505192550 80 146 3.0 8.0 0.00 0.00 0.00 42 1010.4
20260505192110 80 162 4.0 6.0 0.00 0.00 0.00 41 1010.5
20260505191549 80 162 4.0 9.0 0.00 0.00 0.00 42 1010.5
20260505191050 79 146 1.0 15.0 0.00 0.00 0.00 44 1010.5
20260505190551 79 170 6.0 16.0 0.00 0.00 0.00 41 1010.4
20260505190050 79 224 2.0 16.0 0.00 0.00 0.00 42 1010.4
20260505185611 80 124 1.0 11.0 0.00 0.00 0.00 41 1010.5
20260505185050 80 158 3.0 11.0 0.00 0.00 0.00 43 1010.5
20260505184611 80 147 5.0 9.0 0.00 0.00 0.00 42 1010.5
20260505184050 81 163 2.0 8.0 0.00 0.00 0.00 41 1010.6
20260505183611 81 103 3.0 8.0 0.00 0.00 0.00 43 1010.6
20260505183050 81 179 1.0 6.0 0.00 0.00 0.00 41 1010.7
20260505182550 81 153 2.0 13.0 0.00 0.00 0.00 44 1010.6
20260505182050 80 154 4.0 13.0 0.00 0.00 0.00 40 1010.7
20260505181550 80 88 2.0 8.0 0.00 0.00 0.00 39 1010.7
20260505181050 80 119 0.0 8.0 0.00 0.00 0.00 41 1010.7
20260505180611 80 154 6.0 8.0 0.00 0.00 0.00 41 1010.5
20260505180049 80 42 0.0 11.0 0.00 0.00 0.00 41 1010.7
20260505175550 79 79 2.0 11.0 0.00 0.00 0.00 43 1010.8
20260505175111 80 122 8.0 8.0 0.00 0.00 0.00 42 1010.9
20260505174550 80 299 1.0 7.0 0.00 0.00 0.00 41 1010.9
20260505174050 79 161 3.0 7.0 0.00 0.00 0.00 42 1010.9
20260505173550 79 147 2.0 7.0 0.00 0.00 0.00 43 1010.8
20260505173050 79 148 2.0 8.0 0.00 0.00 0.00 42 1011.0